Location: �quirre
(50.4736°N, 2.2351°E)
Time: 16:35:54
(UTC+00:00)

IDEFIX/ARIANE 42P - Pass Details

Date: 07 August 2020
Orbit: 786 x 802 km, 98.4° (Epoch: 19 September)

Event Time Altitude Azimuth Distance (km) Brightness Sun altitude
Rises 03:48:32 0° 11° (N) 3,292 6.5 -6.2°
Reaches altitude 10° 03:50:54 10° 6° (N) 2,360 5.7 -5.9°
Maximum altitude 03:55:56 51° 292° (WNW) 985 2.9 -5.2°
Drops below altitude 10° 04:00:57 10° 217° (SW) 2,351 4.4 -4.6°
Enters shadow 04:02:44 - 214° (SSW) 3,049 5.0 -4.3°
